CZ-4B R/B (44707 NORAD) Tracking and Keplerian Element Data

This shows tracking and keplerian element data for the satellite.

Feedback or suggestion? Click here.




ElementValue
Catalog44707
NameCZ-4B R/B
Epoch Orbit154
Epoch Day316.93304042
Epoch Year2019
RAAN30.5812
Inclination97.5922
Eccentricity0.0189168
Argument of Perigee351.8958
Mean Anonmoly7.9267
Mean Motion15.71337786
Decay Rate0.00104807
L11 44707U 19072E 19316.93304042 .00104807 55025-5 27251-3 0 9998
L22 44707 97.5922 30.5812 0189168 351.8958 7.9267 15.71337786 1548

Live tracking and technical data element details for CZ-4B R/B (NORAD 44707). CZ-4B R/B can be tracked NOW for your location showing map with azimuth and elevation plus other details from your city location.

Track the satellite on the map from your city or location and see movement details for azimuth, elevation, latitude, longitude, range, height, and movement on the map or in text.







IsCatalogInMostPopularTable: catalog: 44707, numindb: 7
Update: records affected: 1



GetName: 44707 CZ-4B R/B

Hit Count: updated at: Thu, 14 Nov 2019 07:31:11 GMT